Parry Sound, Ontario

6:47 PM EST on February 17, 2018 (GMT -0500)
Parry Sound

Weather History for CXPC - June, 2013

Change the Weather History Date:

Friday, June 14, 2013

  Actual Average Record
Temperature  
Mean Temperature 62 °F -  
Max Temperature 72 °F - - ()
Min Temperature 52 °F - - ()
Degree Days  
Heating Degree Days 3    
Growing Degree Days 12 (Base 50)    
Moisture  
Dew Point 45 °F    
Average Humidity 56    
Maximum Humidity 78    
Minimum Humidity 25    
Precipitation  
Precipitation 0.00 in - - ()
Sea Level Pressure  
Sea Level Pressure 29.95 in    
Wind  
Wind Speed - ()    
Max Wind Speed -    
Max Gust Speed -    
T = Trace of Precipitation, MM = Missing Value Source: Averaged Metar Reports

Daily Weather History Graph

Daily Weather History Graph

Search for Another Location

Airport or City:

Trip Planner

Search our weather history database for the weather conditions in past years. The results will help you decide how hot, cold, wet, or windy it might be!

Date:

Astronomy

Jun. 14, 2013 Rise Set
Actual Time 5:31 AM EDT 9:09 PM EDT
Civil Twilight 4:53 AM EDT 9:47 PM EDT
Nautical Twilight 4:03 AM EDT 10:37 PM EDT
Astronomical Twilight 2:56 AM EDT 11:45 PM EDT
Moon 11:19 AM EDT (6/14) 12:02 AM EDT (6/14)
Length of Visible Light 16h 53m
Length of Day
15h 38m
Waxing Crescent, 30% of the Moon is Illuminated
Jun 14
Waxing Crescent
Jun 16
First Quarter
Jun 23
Full
Jun 30
Last Quarter
Jul 8
New

Hourly Weather History & Observations

Time (EDT) Temp. Dew Point Humidity Pressure Visibility Wind Dir Wind Speed Gust Speed Precip Events Conditions
12:00 AM 62.8 °F 55.9 °F 78% 29.84 in - North - - N/A   Unknown
1:00 AM 61.7 °F 54.5 °F 77% 29.85 in - North - - N/A   Unknown
2:00 AM 60 °F 52 °F 66% 29.87 in - Calm Calm - -  
2:00 AM 59.5 °F 51.6 °F 75% 29.87 in - North - - N/A   Unknown
3:00 AM 57.6 °F 49.6 °F 75% 29.88 in - North - - N/A   Unknown
4:00 AM 55.8 °F 47.7 °F 74% 29.88 in - North - - N/A   Unknown
5:00 AM 53.8 °F 46.0 °F 75% 29.91 in - North - - N/A   Unknown
6:00 AM 52.9 °F 44.4 °F 73% 29.93 in - North - - N/A   Unknown
7:00 AM 52.7 °F 43.3 °F 70% 29.95 in - North - - N/A   Unknown
8:00 AM 54 °F 43 °F 57% 29.96 in - Calm Calm - -  
8:00 AM 54.1 °F 43.2 °F 66% 29.96 in - North - - N/A   Unknown
9:00 AM 57.4 °F 43.5 °F 60% 29.97 in - North - - N/A   Unknown
10:00 AM 59.5 °F 43.2 °F 55% 29.99 in - North - - N/A   Unknown
11:00 AM 63.0 °F 44.4 °F 51% 29.99 in - North - - N/A   Unknown
12:00 PM 66.2 °F 42.1 °F 41% 29.98 in - North - - N/A   Unknown
1:00 PM 68.0 °F 40.6 °F 37% 29.99 in - North - - N/A   Unknown
2:00 PM 70 °F 42 °F 25% 29.99 in - Calm Calm - -  
2:00 PM 70.0 °F 41.7 °F 36% 29.99 in - North - - N/A   Unknown
3:00 PM 70.7 °F 39.0 °F 32% 29.99 in - North - - N/A   Unknown
4:00 PM 71.2 °F 36.1 °F 28% 29.98 in - North - - N/A   Unknown
5:00 PM 71.4 °F 35.4 °F 27% 29.97 in - North - - N/A   Unknown
6:00 PM 70.9 °F 37.9 °F 30% 29.96 in - North - - N/A   Unknown
7:00 PM 66.2 °F 47.8 °F 52% 29.96 in - North - - N/A   Unknown
8:00 PM 64 °F 50 °F 51% 29.97 in - Calm Calm - -  
8:00 PM 63.7 °F 50.4 °F 62% 29.97 in - North - - N/A   Unknown
9:00 PM 61.9 °F 45.0 °F 54% 29.97 in - North - - N/A   Unknown
10:00 PM 59.5 °F 47.1 °F 63% 29.98 in - North - - N/A   Unknown
11:00 PM 56.1 °F 46.0 °F 69% 30.00 in - North - - N/A   Unknown